|
Cosmos 1674 Rocket - Orbit
|
State Camp;
23:18:55
| Home | Info | Passes |
|
View from above orbital plane
|
View from above satellite
|
Ground track
|
The orbit data is extracted from the following two-line orbital elements,
1 15945U 85069B 13140.82678359 .00000409 00000-0 47256-4 0 3398
2 15945 082.5290 086.1276 0021286 148.1122 244.8981 14.82999702500361
| Epoch (UTC): | 20 May 2013 19:50:34 |
| Eccentricity: | 0.0021286 |
| inclination: | 82.5290° |
| perigee height: | 605 km |
| apogee height: | 635 km |
| right ascension of ascending node: | 86.1276° |
| argument of perigee: | 148.1122° |
| revolutions per day: | 14.82999702 |
| mean anomaly at epoch: | 244.8981° |
| orbit number at epoch: | 50036 |
The dashed part of the orbit path shows where the satellite is in the earth's shadow,
|
|